When you browse on this site, cookies collect data to enhance your experience and personalize the content and advertising you see.
Visit our Privacy Policy to learn more. By continuing to use the site, you agree to this use of cookies and data.
  • In Hungary
  • List of Countries
  • For 7 days
  • Water Temperature
  • Satellite Maps
  • Weather Map
  • News
  • Weather Widgets
  • user-avatar
    Login

    Hourly Weather Tomakovka

    Today, 22 April, Monday

    Time Temperature Precipitation Wind Pressure Humidity
    00:00 +10°C° 0 mm 3 mps 765 mmHg 49%
    01:00 +10°C° 0 mm 3 mps 765 mmHg 51%
    02:00 +10°C° 0 mm 3 mps 765 mmHg 52%
    03:00 +9°C° 0 mm 3 mps 765 mmHg 54%
    04:00 +8°C° 0 mm 3 mps 766 mmHg 55%
    05:00 +7°C° 0 mm 3 mps 766 mmHg 57%
    06:00 +8°C° 0 mm 4 mps 766 mmHg 52%
    07:00 +10°C° 0 mm 5 mps 766 mmHg 47%
    08:00 +12°C° 0 mm 5 mps 766 mmHg 42%
    09:00 +13°C° 0 mm 6 mps 766 mmHg 39%
    10:00 +14°C° 0 mm 6 mps 766 mmHg 36%
    11:00 +15°C° 0 mm 6 mps 767 mmHg 33%
    12:00 +16°C° 0 mm 6 mps 766 mmHg 32%
    13:00 +16°C° 0 mm 5 mps 766 mmHg 32%
    14:00 +16°C° 0 mm 5 mps 766 mmHg 31%
    15:00 +16°C° 0 mm 5 mps 766 mmHg 34%
    16:00 +17°C° 0 mm 4 mps 766 mmHg 37%
    17:00 +15°C° 0 mm 4 mps 766 mmHg 40%
    18:00 +14°C° 0 mm 4 mps 766 mmHg 43%
    19:00 +13°C° 0 mm 3 mps 767 mmHg 45%
    20:00 +11°C° 0 mm 3 mps 767 mmHg 48%
    21:00 +12°C° 0 mm 3 mps 767 mmHg 49%
    22:00 +12°C° 0 mm 3 mps 767 mmHg 50%
    23:00 +12°C° 0 mm 3 mps 768 mmHg 50%

    Tomorrow, 23 April, Tuesday

    Time Temperature Precipitation Wind Pressure Humidity
    00:00 +12°C° 0 mm 2 mps 768 mmHg 52%
    01:00 +12°C° 0 mm 2 mps 768 mmHg 53%
    02:00 +12°C° 0 mm 2 mps 768 mmHg 55%
    03:00 +12°C° 0 mm 2 mps 768 mmHg 55%
    04:00 +12°C° 0 mm 2 mps 769 mmHg 56%
    05:00 +10°C° 0 mm 2 mps 769 mmHg 56%
    06:00 +13°C° 0 mm 2 mps 769 mmHg 53%
    07:00 +14°C° 0 mm 2 mps 769 mmHg 49%
    08:00 +15°C° 0 mm 2 mps 770 mmHg 45%
    09:00 +16°C° 0 mm 3 mps 770 mmHg 40%
    10:00 +17°C° 0 mm 3 mps 770 mmHg 35%
    11:00 +18°C° 0 mm 3 mps 770 mmHg 31%
    12:00 +18°C° 0 mm 3 mps 770 mmHg 31%
    13:00 +18°C° 0 mm 3 mps 769 mmHg 30%
    14:00 +18°C° 0 mm 3 mps 769 mmHg 30%
    15:00 +18°C° 0 mm 2 mps 769 mmHg 31%
    16:00 +18°C° 0 mm 2 mps 769 mmHg 33%
    17:00 +18°C° 0 mm 2 mps 769 mmHg 34%
    18:00 +16°C° 0 mm 2 mps 769 mmHg 37%
    19:00 +15°C° 0 mm 1 mps 769 mmHg 40%
    20:00 +14°C° 0 mm 1 mps 770 mmHg 43%
    21:00 +13°C° 0 mm 1 mps 770 mmHg 46%
    22:00 +13°C° 0 mm 1 mps 770 mmHg 48%
    23:00 +12°C° 0 mm 1 mps 770 mmHg 51%

    Day after tomorrow, 24 April, Wednesday

    Time Temperature Precipitation Wind Pressure Humidity
    00:00 +12°C° 0 mm 1 mps 770 mmHg 53%
    01:00 +12°C° 0 mm 1 mps 770 mmHg 54%
    02:00 +10°C° 0 mm 0 mps 770 mmHg 56%
    03:00 +10°C° 0 mm 0 mps 770 mmHg 57%
    04:00 +11°C° 0 mm 1 mps 770 mmHg 58%
    05:00 +10°C° 0 mm 1 mps 770 mmHg 60%
    06:00 +12°C° 0 mm 1 mps 771 mmHg 54%
    07:00 +14°C° 0 mm 1 mps 771 mmHg 49%
    08:00 +16°C° 0 mm 2 mps 771 mmHg 44%
    09:00 +17°C° 0 mm 2 mps 771 mmHg 41%
    10:00 +18°C° 0 mm 2 mps 770 mmHg 37%
    11:00 +19°C° 0 mm 3 mps 770 mmHg 34%
    12:00 +19°C° 0 mm 2 mps 770 mmHg 33%
    13:00 +19°C° 0 mm 2 mps 770 mmHg 33%
    14:00 +20°C° 0 mm 1 mps 770 mmHg 33%
    15:00 +20°C° 0 mm 1 mps 770 mmHg 33%
    16:00 +20°C° 0 mm 1 mps 769 mmHg 34%
    17:00 +20°C° 0 mm 1 mps 769 mmHg 34%
    18:00 +19°C° 0 mm 1 mps 769 mmHg 38%
    19:00 +16°C° 0 mm 1 mps 769 mmHg 42%
    20:00 +15°C° 0 mm 1 mps 770 mmHg 45%
    21:00 +14°C° 0 mm 1 mps 770 mmHg 47%
    22:00 +14°C° 0 mm 1 mps 770 mmHg 48%
    23:00 +14°C° 0 mm 1 mps 770 mmHg 50%

    25 April, Thursday

    Time Temperature Precipitation Wind Pressure Humidity
    00:00 +13°C° 0 mm 2 mps 770 mmHg 51%
    01:00 +13°C° 0 mm 2 mps 770 mmHg 53%
    02:00 +12°C° 0 mm 2 mps 770 mmHg 55%
    03:00 +12°C° 0 mm 2 mps 770 mmHg 57%
    04:00 +12°C° 0 mm 2 mps 770 mmHg 59%
    05:00 +12°C° 0 mm 2 mps 770 mmHg 60%
    06:00 +14°C° 0 mm 2 mps 770 mmHg 57%
    07:00 +16°C° 0 mm 2 mps 770 mmHg 54%
    08:00 +18°C° 0 mm 3 mps 770 mmHg 51%
    09:00 +19°C° 0 mm 2 mps 770 mmHg 47%
    10:00 +20°C° 0 mm 2 mps 770 mmHg 43%
    11:00 +23°C° 0 mm 2 mps 770 mmHg 39%
    12:00 +23°C° 0 mm 2 mps 769 mmHg 38%
    13:00 +24°C° 0 mm 2 mps 769 mmHg 37%
    14:00 +24°C° 0 mm 1 mps 768 mmHg 37%
    15:00 +24°C° 0 mm 1 mps 768 mmHg 39%
    16:00 +24°C° 0 mm 1 mps 768 mmHg 41%
    17:00 +21°C° 0 mm 0 mps 768 mmHg 43%
    18:00 +20°C° 0 mm 0 mps 768 mmHg 45%
    19:00 +21°C° 0 mm 1 mps 768 mmHg 47%
    20:00 +20°C° 0 mm 1 mps 768 mmHg 50%
    21:00 +20°C° 0 mm 1 mps 768 mmHg 51%
    22:00 +19°C° 0 mm 1 mps 767 mmHg 53%
    23:00 +18°C° 0 mm 1 mps 767 mmHg 55%

    26 April, Friday

    Time Temperature Precipitation Wind Pressure Humidity
    00:00 +17°C° 0 mm 2 mps 767 mmHg 56%
    01:00 +16°C° 0 mm 2 mps 767 mmHg 58%
    02:00 +16°C° 0 mm 2 mps 767 mmHg 59%
    03:00 +16°C° 0 mm 2 mps 767 mmHg 62%
    04:00 +15°C° 0 mm 1 mps 767 mmHg 64%
    05:00 +15°C° 0 mm 1 mps 767 mmHg 66%
    06:00 +17°C° 0 mm 2 mps 767 mmHg 62%
    07:00 +19°C° 0 mm 2 mps 766 mmHg 57%
    08:00 +21°C° 0 mm 2 mps 766 mmHg 52%
    09:00 +23°C° 0 mm 2 mps 766 mmHg 47%
    10:00 +24°C° 0 mm 2 mps 766 mmHg 42%
    11:00 +25°C° 0 mm 2 mps 765 mmHg 37%
    12:00 +25°C° 0 mm 2 mps 765 mmHg 36%
    13:00 +25°C° 0 mm 2 mps 765 mmHg 36%
    14:00 +25°C° 0 mm 2 mps 765 mmHg 36%
    15:00 +24°C° 0 mm 1 mps 764 mmHg 39%
    16:00 +24°C° 0 mm 1 mps 764 mmHg 42%
    17:00 +23°C° 0 mm 1 mps 764 mmHg 45%
    18:00 +22°C° 0 mm 1 mps 764 mmHg 46%
    19:00 +21°C° 0 mm 1 mps 764 mmHg 48%
    20:00 +18°C° 0 mm 0 mps 764 mmHg 49%
    21:00 +19°C° 0 mm 1 mps 764 mmHg 51%
    22:00 +19°C° 0 mm 1 mps 763 mmHg 52%
    23:00 +19°C° 0 mm 1 mps 763 mmHg 54%

    27 April, Saturday

    Time Temperature Precipitation Wind Pressure Humidity
    00:00 +18°C° 0 mm 1 mps 763 mmHg 56%
    01:00 +18°C° 0 mm 1 mps 763 mmHg 57%
    02:00 +16°C° 0 mm 1 mps 763 mmHg 59%
    03:00 +16°C° 0 mm 1 mps 763 mmHg 59%
    04:00 +15°C° 0 mm 0 mps 763 mmHg 59%
    05:00 +16°C° 0 mm 0 mps 763 mmHg 58%
    06:00 +16°C° 0 mm 0 mps 763 mmHg 58%
    07:00 +17°C° 0 mm 0 mps 763 mmHg 57%
    08:00 +17°C° 0 mm 0 mps 763 mmHg 57%
    09:00 +19°C° 0 mm 0 mps 763 mmHg 52%
    10:00 +20°C° 0 mm 0 mps 763 mmHg 47%
    11:00 +21°C° 0 mm 0 mps 763 mmHg 43%
    12:00 +23°C° 0 mm 1 mps 763 mmHg 41%
    13:00 +24°C° 0 mm 2 mps 762 mmHg 40%
    14:00 +24°C° 0 mm 2 mps 762 mmHg 39%
    15:00 +24°C° 0 mm 2 mps 762 mmHg 41%
    16:00 +23°C° 0 mm 2 mps 762 mmHg 43%
    17:00 +23°C° 0 mm 2 mps 762 mmHg 44%
    18:00 +21°C° 0 mm 2 mps 762 mmHg 46%
    19:00 +21°C° 0 mm 1 mps 762 mmHg 48%
    20:00 +20°C° 0 mm 1 mps 762 mmHg 49%
    21:00 +19°C° 0 mm 1 mps 762 mmHg 53%
    22:00 +18°C° 0 mm 1 mps 762 mmHg 56%
    23:00 +18°C° 0 mm 1 mps 763 mmHg 59%
    Show more